Weather in Mazeikiai

Lithuania     56°18′12″N   22°20′16″E
temp.,
°C
wind,
m/s
gust,
m/s
humid.,
%
clouds,
%
prec.,
mm/h
press.,
hPa
HPBL,
m
27 october, wed
wed2700:00+9w51095100 3.2 1013618
03:00+8w5119413 3.4 1014446
06:00+6wsw511915 0.0 1015335
09:00+6sw41193100 0.0 1015289
12:00+11sw6128595 0.0 1015924
15:00+10sw81492100 0.3 1013881
18:00+11wsw91795100 2.0 1011965
21:00+11wsw91794100 5.3 1011940
28 october, thu
thu2800:00+12w81593100 0.3 1013895
03:00+12w61395100 0.4 1014654
06:00+11w51095100 0.1 1015477
09:00+11wsw4898100 0.1 1017393
12:00+11sw4898100 0.6 1018363
15:00+12wsw51194100 0.6 1019519
18:00+11wsw41193100 0.0 1020410
21:00+10sw4119539 0.0 1020302
29 october, fri
fri2900:00+9sw412916 0.0 1021269
03:00+9ssw411948 0.0 1021245
06:00+8ssw4109429 0.0 1020207
09:00+8s412911 0.0 1020258
12:00+12s513726 0.0 1020468
15:00+14s514655 0.0 1019621
18:00+11s5127420 0.0 1018347
21:00+10s5147925 0.0 1018381
30 october, sat
sat3000:00+9s4128295 0.0 1018321
03:00+8s4118771 0.0 1018237
06:00+7sse4118844 0.0 1017219
09:00+7sse411915 0.0 1017226
12:00+11s513665 0.0 1017483
15:00+12ssw596238 0.0 1017556
18:00+8ssw37765 0.0 1017139
21:00+7ssw310817 0.0 1018207
31 october, sun
sun3100:00+7ssw3880100 0.0 1018151
03:00+6ssw3580100 0.0 101976
05:00+6sse3679100 0.0 101884
08:00+6sse397971 0.0 1017179
11:00+11sse496361 0.0 1016297
14:00+12sse5136219 0.0 1013560
17:00+10sse61470100 0.0 1011470
20:00+10s71670100 0.0 1010504